User: anonymous   Login
Location: Unspecified
(48.5539°N, 71.6350°W)
Time: 00:37:23
(UTC-04:00)
Language:

N. Korean satellite - Orbit

View from above orbital plane
View from above orbital plane
View from above satellite
View from above satellite

Ground track
Ground track

The orbit data is extracted from the following two-line orbital elements,

1 39026U 12072A   19199.79117880  .00000877  00000-0  34270-4 0  9994
2 39026  97.2107 201.9639 0037939 357.1640   2.9379 15.27869802366198
Epoch (UTC): 18 July 2019 18:59:17
Eccentricity: 0.0037939
inclination: 97.2107°
perigee height: 456 km
apogee height: 508 km
right ascension of ascending node: 201.9639°
argument of perigee: 357.1640°
revolutions per day: 15.27869802
mean anomaly at epoch: 2.9379°
orbit number at epoch: 36619

The dashed part of the orbit path shows where the satellite is in the earth's shadow,  

DLR